*** The Vicarage Weather Feed ***
Oshawa-Weather Station Historical Data
 
Daily Summary for July 10, 2020 Units:  Metric    English   Both
Daily Weekly Monthly Yearly
  Current: High: Low: Average:
Temperature: 29.4 °C 33.7 °C 25.8 °C 29.6 °C
Dew Point: 23.4 °C 24.4 °C 21.2 °C 22.7 °C
Humidity: 70% 77% 58% 67%
Wind Speed: 0km/h 0km/h 0km/h 0km/h
Wind Gust: 0km/h 0km/h - -
WindCalm - - North
Pressure: 1005.1 hPa 1011.8 hPa 1004.7 hPa -
Precipitation: 0.0 mm      
 
 
Tabular Data for July 10, 2020
Time Temperature Dew Point Pressure Wind Wind Speed Wind Gust Humidity Rainfall Rate (Hourly) solar
00:00 27.3 °C 21.6 °C 1011.0 hPa Calm     71% 0.0 mm W/m2
00:10 27.3 °C 21.6 °C 1011.0 hPa Calm     71% 0.0 mm W/m2
00:20 27.4 °C 21.7 °C 1011.2 hPa Calm     71% 0.0 mm W/m2
00:30 27.4 °C 21.7 °C 1011.3 hPa Calm     71% 0.0 mm W/m2
00:40 27.6 °C 21.8 °C 1011.3 hPa Calm     71% 0.0 mm W/m2
00:50 27.6 °C 21.8 °C 1011.5 hPa Calm     71% 0.0 mm W/m2
01:00 27.6 °C 21.9 °C 1011.8 hPa Calm     71% 0.0 mm W/m2
01:10 27.7 °C 22 °C 1011.7 hPa Calm     71% 0.0 mm W/m2
01:20 27.7 °C 22 °C 1011.7 hPa Calm     71% 0.0 mm W/m2
01:30 27.7 °C 22 °C 1011.5 hPa Calm     71% 0.0 mm W/m2
01:40 27.7 °C 21.9 °C 1011.4 hPa Calm     71% 0.0 mm W/m2
01:50 27.4 °C 21.7 °C 1011.2 hPa Calm     71% 0.0 mm W/m2
02:00 27.3 °C 21.6 °C 1011.2 hPa Calm     71% 0.0 mm W/m2
02:10 27.3 °C 21.6 °C 1011.2 hPa Calm     71% 0.0 mm W/m2
02:20 27.3 °C 21.6 °C 1011.5 hPa Calm     71% 0.0 mm W/m2
02:30 27.2 °C 21.5 °C 1011.5 hPa Calm     71% 0.0 mm W/m2
02:40 27.2 °C 21.7 °C 1011.3 hPa Calm     72% 0.0 mm W/m2
02:50 27.2 °C 21.7 °C 1011.2 hPa Calm     72% 0.0 mm W/m2
03:00 27.1 °C 21.6 °C 1011.1 hPa Calm     72% 0.0 mm W/m2
03:10 27.1 °C 21.6 °C 1010.7 hPa Calm     72% 0.0 mm W/m2
03:20 27.1 °C 21.8 °C 1010.5 hPa Calm     73% 0.0 mm W/m2
03:30 27 °C 21.7 °C 1010.4 hPa Calm     73% 0.0 mm W/m2
03:40 26.8 °C 21.6 °C 1010.4 hPa Calm     73% 0.0 mm W/m2
03:50 26.8 °C 21.6 °C 1010.2 hPa Calm     73% 0.0 mm W/m2
04:00 26.7 °C 21.5 °C 1010.3 hPa Calm     73% 0.0 mm W/m2
04:10 26.7 °C 21.4 °C 1010.3 hPa Calm     73% 0.0 mm W/m2
04:20 26.7 °C 21.4 °C 1010.1 hPa Calm     73% 0.0 mm W/m2
04:30 26.7 °C 21.5 °C 1010.2 hPa Calm     73% 0.0 mm W/m2
04:40 26.8 °C 21.6 °C 1010.2 hPa Calm     73% 0.0 mm W/m2
04:50 26.8 °C 21.6 °C 1010.2 hPa Calm     73% 0.0 mm W/m2
05:00 26.7 °C 21.7 °C 1010.4 hPa Calm     74% 0.0 mm W/m2
05:10 26.5 °C 21.7 °C 1010.5 hPa Calm     75% 0.0 mm W/m2
05:20 26.4 °C 21.8 °C 1010.7 hPa Calm     76% 0.0 mm W/m2
05:30 26.3 °C 22 °C 1010.6 hPa Calm     77% 0.0 mm W/m2
05:40 26.2 °C 21.8 °C 1010.7 hPa Calm     77% 0.0 mm W/m2
05:50 26.1 °C 21.8 °C 1010.6 hPa Calm     77% 0.0 mm W/m2
06:00 26.1 °C 21.8 °C 1010.6 hPa Calm     77% 0.0 mm W/m2
06:10 26.1 °C 21.5 °C 1010.6 hPa Calm     76% 0.0 mm W/m2
06:20 26.1 °C 21.6 °C 1010.7 hPa Calm     76% 0.0 mm W/m2
06:30 26.1 °C 21.5 °C 1010.9 hPa Calm     76% 0.0 mm W/m2
06:40 25.9 °C 21.3 °C 1010.8 hPa Calm     76% 0.0 mm W/m2
06:50 25.8 °C 21.3 °C 1010.6 hPa Calm     76% 0.0 mm W/m2
07:00 25.8 °C 21.2 °C 1010.7 hPa Calm     76% 0.0 mm W/m2
07:10 25.8 °C 21.3 °C 1010.6 hPa Calm     76% 0.0 mm W/m2
07:20 25.9 °C 21.3 °C 1010.8 hPa Calm     76% 0.0 mm W/m2
07:30 26 °C 21.4 °C 1010.8 hPa Calm     76% 0.0 mm W/m2
07:40 26 °C 21.7 °C 1010.8 hPa Calm     77% 0.0 mm W/m2
07:50 26.1 °C 21.5 °C 1010.8 hPa Calm     76% 0.0 mm W/m2
08:00 26.2 °C 21.6 °C 1010.8 hPa Calm     76% 0.0 mm W/m2
08:10 26.4 °C 21.7 °C 1010.8 hPa Calm     75% 0.0 mm W/m2
08:20 26.5 °C 21.7 °C 1010.8 hPa Calm     75% 0.0 mm W/m2
08:30 26.8 °C 21.8 °C 1010.8 hPa Calm     74% 0.0 mm W/m2
08:40 27.1 °C 21.6 °C 1010.7 hPa Calm     72% 0.0 mm W/m2
08:50 27.4 °C 21.9 °C 1010.6 hPa Calm     72% 0.0 mm W/m2
09:00 27.8 °C 22.1 °C 1010.6 hPa Calm     71% 0.0 mm W/m2
09:10 28.3 °C 22.5 °C 1010.6 hPa Calm     71% 0.0 mm W/m2
09:20 28.5 °C 22.7 °C 1010.6 hPa Calm     71% 0.0 mm W/m2
09:30 28.7 °C 22.9 °C 1010.5 hPa Calm     71% 0.0 mm W/m2
09:50 29.2 °C 23.2 °C 1010.2 hPa Calm     70% 0.0 mm W/m2
10:00 29.6 °C 23.3 °C 1010.3 hPa Calm     69% 0.0 mm W/m2
10:10 30 °C 23.4 °C 1010.2 hPa Calm     68% 0.0 mm W/m2
10:40 30.6 °C 23.6 °C 1010.2 hPa Calm     66% 0.0 mm W/m2
10:50 30.3 °C 23.5 °C 1010.2 hPa Calm     67% 0.0 mm W/m2
11:00 30.4 °C 23.9 °C 1010.2 hPa Calm     68% 0.0 mm W/m2
11:10 30.2 °C 23.6 °C 1010.1 hPa Calm     68% 0.0 mm W/m2
11:20 29.9 °C 23.6 °C 1010.1 hPa Calm     69% 0.0 mm W/m2
11:30 30.2 °C 23.6 °C 1010.2 hPa Calm     68% 0.0 mm W/m2
11:40 30.6 °C 24.1 °C 1010.1 hPa Calm     68% 0.0 mm W/m2
11:50 31.2 °C 24.1 °C 1010.0 hPa Calm     66% 0.0 mm W/m2
12:10 31.7 °C 24 °C 1010.0 hPa Calm     64% 0.0 mm W/m2
12:20 32.1 °C 23.9 °C 1009.9 hPa Calm     62% 0.0 mm W/m2
12:30 32.2 °C 23.7 °C 1009.9 hPa Calm     61% 0.0 mm W/m2
12:40 32.4 °C 23.9 °C 1009.9 hPa Calm     61% 0.0 mm W/m2
12:50 32.7 °C 24.2 °C 1009.8 hPa Calm     61% 0.0 mm W/m2
13:00 32.4 °C 23.9 °C 1009.6 hPa Calm     61% 0.0 mm W/m2
13:10 32.6 °C 23.8 °C 1009.5 hPa Calm     60% 0.0 mm W/m2
13:20 32.7 °C 23.9 °C 1009.3 hPa Calm     60% 0.0 mm W/m2
13:30 32.9 °C 23.6 °C 1009.1 hPa Calm     58% 0.0 mm W/m2
13:40 32.7 °C 23.3 °C 1008.9 hPa Calm     58% 0.0 mm W/m2
13:50 32.8 °C 23.5 °C 1008.7 hPa Calm     58% 0.0 mm W/m2
14:00 32.9 °C 23.9 °C 1008.5 hPa Calm     59% 0.0 mm W/m2
14:10 32.7 °C 23.7 °C 1008.3 hPa Calm     59% 0.0 mm W/m2
14:20 32.8 °C 23.5 °C 1008.3 hPa Calm     58% 0.0 mm W/m2
14:30 32.9 °C 23.6 °C 1008.1 hPa Calm     58% 0.0 mm W/m2
14:40 32.9 °C 23.6 °C 1008.0 hPa Calm     58% 0.0 mm W/m2
14:50 33.1 °C 23.7 °C 1007.9 hPa Calm     58% 0.0 mm W/m2
15:00 33.2 °C 24.1 °C 1007.8 hPa Calm     59% 0.0 mm W/m2
15:10 33.6 °C 24.4 °C 1007.7 hPa Calm     59% 0.0 mm W/m2
15:20 33.4 °C 24 °C 1007.6 hPa Calm     58% 0.0 mm W/m2
15:30 33.3 °C 24.2 °C 1007.6 hPa Calm     59% 0.0 mm W/m2
15:40 33.7 °C 24.3 °C 1007.5 hPa Calm     58% 0.0 mm W/m2
15:50 33.1 °C 23.7 °C 1007.4 hPa Calm     58% 0.0 mm W/m2
16:00 32.9 °C 23.6 °C 1007.4 hPa Calm     58% 0.0 mm W/m2
16:10 32.7 °C 23.4 °C 1007.2 hPa Calm     58% 0.0 mm W/m2
16:20 32.6 °C 23.6 °C 1007.1 hPa Calm     59% 0.0 mm W/m2
16:30 32.7 °C 23.6 °C 1006.8 hPa Calm     59% 0.0 mm W/m2
16:40 32.8 °C 24.1 °C 1006.7 hPa Calm     60% 0.0 mm W/m2
16:50 32.8 °C 23.8 °C 1006.5 hPa Calm     59% 0.0 mm W/m2
17:00 32.9 °C 23.9 °C 1006.4 hPa Calm     59% 0.0 mm W/m2
17:10 32.9 °C 23.6 °C 1006.4 hPa Calm     58% 0.0 mm W/m2
17:20 32.9 °C 23.6 °C 1006.4 hPa Calm     58% 0.0 mm W/m2
17:30 32.7 °C 23.3 °C 1006.4 hPa Calm     58% 0.0 mm W/m2
17:40 32.7 °C 23.6 °C 1006.3 hPa Calm     59% 0.0 mm W/m2
17:50 32.7 °C 23.7 °C 1006.4 hPa Calm     59% 0.0 mm W/m2
18:00 32.6 °C 23.8 °C 1006.1 hPa Calm     60% 0.0 mm W/m2
18:10 32.3 °C 23.6 °C 1006.0 hPa Calm     60% 0.0 mm W/m2
18:20 32.3 °C 23.8 °C 1005.8 hPa Calm     61% 0.0 mm W/m2
18:30 32.3 °C 23.6 °C 1005.6 hPa Calm     60% 0.0 mm W/m2
18:40 32.3 °C 23.5 °C 1005.6 hPa Calm     60% 0.0 mm W/m2
18:50 32.2 °C 23.4 °C 1005.7 hPa Calm     60% 0.0 mm W/m2
19:00 32.2 °C 23.4 °C 1005.6 hPa Calm     60% 0.0 mm W/m2
19:10 31.9 °C 22.9 °C 1005.5 hPa Calm     59% 0.0 mm W/m2
19:20 31.7 °C 22.9 °C 1005.4 hPa Calm     60% 0.0 mm W/m2
19:30 31.5 °C 23.1 °C 1005.2 hPa Calm     61% 0.0 mm W/m2
19:40 31.4 °C 22.7 °C 1005.2 hPa Calm     60% 0.0 mm W/m2
19:50 31.3 °C 22.6 °C 1005.2 hPa Calm     60% 0.0 mm W/m2
20:00 31.3 °C 22.6 °C 1005.0 hPa Calm     60% 0.0 mm W/m2
20:10 31.2 °C 22.5 °C 1005.0 hPa Calm     60% 0.0 mm W/m2
20:30 30.6 °C 22.5 °C 1004.7 hPa Calm     62% 0.0 mm W/m2
20:40 30.3 °C 22.4 °C 1004.8 hPa Calm     63% 0.0 mm W/m2
21:00 29.9 °C 22.8 °C 1005.2 hPa Calm     66% 0.0 mm W/m2
21:10 29.6 °C 23.1 °C 1005.0 hPa Calm     68% 0.0 mm W/m2
21:20 29.4 °C 23.4 °C 1005.1 hPa Calm     70% 0.0 mm W/m2
Compliments of Weather Underground - 3 mb
This data is offered only as a general guide to local weather conditions. It should not be relied upon in lieu of officially disseminated weather information for determining possible risk to persons or property. This site, including all information contained therein, is made available as is without warranties of any kind, either express or implied. The Vicarage Weather Feed© includes links to other sites for user convenience only. The content of any linked third-party site is not controlled by The Vicarage Weather Feed©. Access to any third-party website through The Vicarage Weather Feed©, regardless of whether or not the third-party site is a linked site, is entirely at the users own risk. Externally sourced content or material is excluded from The Vicarage Weather Feed© copyright and is the copyright and property of the respective provider. Skywarn® and the Skywarn® logo are registered trademarks of the National Oceanic and Atmospheric Administration, used with permission.